Presidio Lely Intl, Presidio,, TX

7:43 PM CDT on April 23, 2017 (GMT -0500)
Presidio Lely Intl, Presidio,

Weather History for KPRS - February, 2014

Change the Weather History Date:

Wednesday, February 19, 2014

  Actual Average (KMRF) Record (KMRF)
Temperature  
Mean Temperature 70 °F -  
Max Temperature 87 °F 59 °F 84 °F (2016)
Min Temperature 53 °F 29 °F 12 °F (1998)
Cooling Degree Days 5    
Growing Degree Days 20 (Base 50)    
Moisture  
Dew Point 18 °F    
Average Humidity 15    
Maximum Humidity 25    
Minimum Humidity 7    
Precipitation  
Precipitation 0.00 in - - ()
Sea Level Pressure  
Sea Level Pressure 29.85 in    
Wind  
Wind Speed 6 mph (WNW)    
Max Wind Speed 14 mph    
Max Gust Speed 20 mph    
Visibility 10 miles    
Events      
Averages and records for this station are not official NWS values.
T = Trace of Precipitation, MM = Missing Value Source: NWS Daily Summary

Daily Weather History Graph

Daily Weather History Graph

Search for Another Location

Airport or City:

Trip Planner

Search our weather history database for the weather conditions in past years. The results will help you decide how hot, cold, wet, or windy it might be!

Date:

Astronomy

Feb. 19, 2014 Rise Set
Actual Time 7:33 AM CST 6:49 PM CST
Civil Twilight 7:08 AM CST 7:13 PM CST
Nautical Twilight 6:41 AM CST 7:41 PM CST
Astronomical Twilight 6:13 AM CST 8:09 PM CST
Moon 11:20 PM CST (2/19) 10:03 AM CST (2/19)
Length of Visible Light 12h 05m
Length of Day
11h 16m
Waning Gibbous, 79% of the Moon is Illuminated
Feb 19
Waning Gibbous
Feb 22
Last Quarter
Mar 1
New
Mar 8
First Quarter
Mar 16
Full

Hourly Weather History & Observations

Time (CST) Temp. Dew Point Humidity Pressure Visibility Wind Dir Wind Speed Gust Speed Precip Events Conditions
12:15 AM 66.2 °F 19.0 °F 16% 29.95 in 10.0 mi North 10.4 mph - N/A   Clear
12:35 AM 65.7 °F 18.9 °F 17% 29.94 in 10.0 mi North 11.5 mph - N/A   Clear
12:55 AM 65.3 °F 18.7 °F 17% 29.94 in 10.0 mi North 11.5 mph - N/A   Clear
1:15 AM 64.6 °F 18.5 °F 17% 29.94 in 10.0 mi Calm Calm - N/A   Clear
1:35 AM 63.5 °F 18.7 °F 18% 29.94 in 10.0 mi North 3.5 mph - N/A   Clear
1:55 AM 62.4 °F 18.5 °F 18% 29.94 in 10.0 mi NW 5.8 mph - N/A   Clear
2:15 AM 59.0 °F 18.7 °F 21% 29.94 in 10.0 mi ENE 3.5 mph - N/A   Clear
2:35 AM 57.2 °F 17.6 °F 21% 29.94 in 10.0 mi ESE 5.8 mph - N/A   Clear
2:55 AM 54.9 °F 17.1 °F 23% 29.94 in 10.0 mi Calm Calm - N/A   Clear
3:15 AM 53.1 °F 16.7 °F 24% 29.93 in 10.0 mi North 4.6 mph - N/A   Clear
3:35 AM 55.0 °F 17.6 °F 23% 29.92 in 10.0 mi NNW 9.2 mph - N/A   Clear
3:55 AM 57.2 °F 18.1 °F 22% 29.92 in 10.0 mi NNW 8.1 mph - N/A   Clear
4:15 AM 57.0 °F 17.8 °F 22% 29.92 in 10.0 mi North 9.2 mph - N/A   Clear
4:35 AM 58.1 °F 17.4 °F 20% 29.92 in 10.0 mi Calm Calm - N/A   Clear
4:55 AM 57.9 °F 17.6 °F 21% 29.91 in 10.0 mi North 4.6 mph - N/A   Clear
5:15 AM 57.6 °F 17.6 °F 21% 29.91 in 10.0 mi North 6.9 mph - N/A   Clear
5:35 AM 57.2 °F 17.4 °F 21% 29.91 in 10.0 mi Calm Calm - N/A   Clear
5:55 AM 55.4 °F 17.4 °F 23% 29.92 in 10.0 mi North 6.9 mph - N/A   Clear
6:15 AM 55.6 °F 17.4 °F 22% 29.91 in 10.0 mi NNW 6.9 mph - N/A   Clear
6:35 AM 53.8 °F 17.2 °F 24% 29.92 in 10.0 mi NNW 6.9 mph - N/A   Clear
6:55 AM 53.1 °F 17.8 °F 25% 29.92 in 10.0 mi NNW 6.9 mph - N/A   Clear
7:15 AM 54.0 °F 18.3 °F 25% 29.92 in 10.0 mi NNW 8.1 mph - N/A   Clear
7:35 AM 54.5 °F 18.5 °F 24% 29.93 in 10.0 mi NNW 10.4 mph - N/A   Clear
7:55 AM 55.9 °F 18.5 °F 23% 29.93 in 10.0 mi NNW 5.8 mph - N/A   Clear
8:15 AM 54.0 °F 18.1 °F 25% 29.94 in 10.0 mi Calm Calm - N/A   Clear
8:35 AM 54.5 °F 18.1 °F 24% 29.94 in 10.0 mi Calm Calm - N/A   Clear
8:55 AM 55.2 °F 18.1 °F 23% 29.94 in 10.0 mi Calm Calm - N/A   Clear
9:15 AM 58.3 °F 18.5 °F 21% 29.95 in 10.0 mi Calm Calm - N/A   Clear
9:35 AM 59.9 °F 19.0 °F 21% 29.95 in 10.0 mi Calm Calm - N/A   Clear
9:55 AM 62.1 °F 19.4 °F 19% 29.95 in 10.0 mi Calm Calm - N/A   Clear
10:15 AM 64.0 °F 19.4 °F 18% 29.95 in 10.0 mi Calm Calm - N/A   Clear
10:35 AM 65.7 °F 19.4 °F 17% 29.95 in 10.0 mi Calm Calm - N/A   Clear
10:55 AM 69.1 °F 19.6 °F 15% 29.94 in 10.0 mi Calm Calm - N/A   Clear
11:15 AM 71.8 °F 19.9 °F 14% 29.93 in 10.0 mi NE 4.6 mph - N/A   Clear
11:35 AM 74.1 °F 19.9 °F 13% 29.91 in 10.0 mi ESE 3.5 mph - N/A   Clear
11:55 AM 75.4 °F 20.5 °F 13% 29.91 in 10.0 mi Calm Calm - N/A   Clear
12:15 PM 76.5 °F 20.3 °F 12% 29.89 in 10.0 mi Calm Calm - N/A   Clear
12:35 PM 77.7 °F 20.7 °F 12% 29.88 in 10.0 mi Calm Calm - N/A   Clear
12:55 PM 79.0 °F 20.5 °F 11% 29.87 in 10.0 mi South 3.5 mph - N/A   Clear
1:15 PM 81.1 °F 20.3 °F 10% 29.85 in 10.0 mi SW 5.8 mph - N/A   Clear
1:35 PM 82.2 °F 20.3 °F 10% 29.83 in 10.0 mi WSW 3.5 mph - N/A   Clear
1:55 PM 83.5 °F 20.5 °F 10% 29.81 in 10.0 mi West 9.2 mph - N/A   Clear
2:15 PM 85.1 °F 21.4 °F 10% 29.79 in 10.0 mi West 10.4 mph - N/A   Clear
2:35 PM 84.9 °F 19.9 °F 9% 29.78 in 10.0 mi SSW 8.1 mph - N/A   Clear
2:55 PM 86.0 °F 20.5 °F 9% 29.77 in 10.0 mi SSW 8.1 mph - N/A   Clear
3:15 PM 85.6 °F 19.8 °F 9% 29.77 in 10.0 mi South 8.1 mph - N/A   Clear
3:35 PM 87.6 °F 19.2 °F 8% 29.76 in 10.0 mi SW 13.8 mph - N/A   Clear
3:55 PM 86.0 °F 19.9 °F 9% 29.75 in 10.0 mi West 5.8 mph 17.3 mph N/A   Clear
4:15 PM 87.6 °F 17.2 °F 7% 29.74 in 10.0 mi SW 11.5 mph 19.6 mph N/A   Clear
4:35 PM 87.6 °F 17.8 °F 8% 29.74 in 10.0 mi South 5.8 mph 17.3 mph N/A   Clear
4:55 PM 87.1 °F 17.6 °F 8% 29.73 in 10.0 mi SSW 10.4 mph 17.3 mph N/A   Clear
5:15 PM 87.1 °F 16.5 °F 7% 29.73 in 10.0 mi SSW 12.7 mph - N/A   Clear
5:35 PM 86.7 °F 16.2 °F 7% 29.73 in 10.0 mi WSW 9.2 mph - N/A   Clear
5:55 PM 86.2 °F 15.8 °F 7% 29.73 in 10.0 mi SW 4.6 mph - N/A   Clear
6:15 PM 85.6 °F 15.6 °F 7% 29.72 in 10.0 mi South 5.8 mph - N/A   Clear
6:35 PM 84.4 °F 15.8 °F 8% 29.72 in 10.0 mi Calm Calm - N/A   Clear
6:55 PM 81.0 °F 15.6 °F 9% 29.72 in 10.0 mi SSE 3.5 mph - N/A   Clear
7:15 PM 81.0 °F 16.2 °F 9% 29.72 in 10.0 mi SE 3.5 mph - N/A   Clear
7:35 PM 79.7 °F 15.8 °F 9% 29.72 in 10.0 mi Calm Calm - N/A   Clear
7:55 PM 77.4 °F 15.8 °F 10% 29.73 in 10.0 mi SE 3.5 mph - N/A   Clear
8:15 PM 76.5 °F 15.8 °F 10% 29.75 in 10.0 mi WNW 9.2 mph 19.6 mph N/A   Clear
8:35 PM 77.4 °F 16.7 °F 10% 29.75 in 10.0 mi WNW 12.7 mph - N/A   Clear
8:55 PM 77.9 °F 16.2 °F 10% 29.75 in 10.0 mi NW 11.5 mph - N/A   Clear
9:15 PM 75.2 °F 16.0 °F 11% 29.76 in 10.0 mi NW 9.2 mph - N/A   Clear
9:35 PM 74.1 °F 15.3 °F 11% 29.76 in 10.0 mi NW 8.1 mph - N/A   Clear
9:55 PM 70.3 °F 14.7 °F 12% 29.77 in 10.0 mi NNW 6.9 mph - N/A   Clear
10:15 PM 69.3 °F 14.7 °F 12% 29.77 in 10.0 mi North 6.9 mph - N/A   Clear
10:35 PM 65.3 °F 14.2 °F 14% 29.77 in 10.0 mi SSW 3.5 mph - N/A   Clear
10:55 PM 65.3 °F 14.9 °F 14% 29.77 in 10.0 mi SE 4.6 mph - N/A   Clear
11:15 PM 65.8 °F 14.9 °F 14% 29.77 in 10.0 mi ESE 3.5 mph - N/A   Clear
11:35 PM 64.9 °F 14.9 °F 14% 29.78 in 10.0 mi Calm Calm - N/A   Clear
11:55 PM 63.3 °F 14.4 °F 15% 29.78 in 10.0 mi Calm Calm - N/A   Clear